Location: Middle Street
(51.7167°N, 0.0333°E)
Time: 02:06:42
(UTC+00:00)

Cosmos 158 Rocket - Pass Details

Date: 20 January 2021
Orbit: 698 x 794 km, 74.0° (Epoch: 28 February)

Event Time Altitude Azimuth Distance (km) Brightness Sun altitude
Rises 18:12:49 0° 335° (NNW) 3,250 7.4 -15.8°
Reaches altitude 10° 18:15:12 10° 338° (NNW) 2,333 6.6 -16.2°
Maximum altitude 18:20:30 69° 62° (ENE) 843 4.0 -17.0°
Drops below altitude 10° 18:25:52 10° 146° (SSE) 2,355 6.3 -17.8°
Sets 18:28:17 0° 149° (SSE) 3,284 7.1 -18.2°
